DECAYED
Showing default

NUSAT-32 (ALBANIA-1), 55064 (Decayed)

Orbit data source: Space-Track

NUSAT-32 (ALBANIA-1), 55064 was a payload satellite owned by URUGUS S.A. (AR) in LEO that was launched on Tue, 03 Jan 2023 UTC via an FALCON 9 launch vehicle from the Air Force Eastern Test Range (AFETR). Payload-class satellites include a variety of spacecraft equipped with specific instruments for various scientific and technological missions. These include communications satellites like Starlink; space stations such as the ISS; scientific satellites like the Hubble; Earth observation satellites from companies like Planet Labs, Umbra, and HawkEye 360; GPS; miniature CubeSats for education and research; and military/defense satellites.

Not visible in the next 10 days
Identifier
55064, 2023-001BH
Orbit
Decayed
Country
Flag of ARAR / ARGN
Related business
Manufacturer
URUGUS S.A.
Mission
Decayed Commercial Imaging
Bus & Motor
NEWSAT V, Unknown motor
Mass
41.5 kg wet, 38.5 kg dry
Launch date (UTC)
2023-01-03 (3 years ago)
Launch vehicle
FALCON 9
Launch site
Air Force Eastern Test Range (AFETR)
Object type
Payload
Rocket body
Debris
Shape & HBR
Box, 1.0 m
Radar Cross Section
0.542 m², Medium (>0.1 m² and < 1m²)

Expand to show TLE details & history
Last TLE update: 3 months ago

TLE from 3 months ago
0 NUSAT-32 (ALBANIA-1)
1 55064U 23001BH  26029.11461703  .13343556  24602-5  26591-3 0  9993
2 55064  97.1663 101.3791 0008935 259.5540 100.4757 16.46665017172603
Epoch: 2026-01-29T02:45Z
TLE epoch observation values (Epoch: 2026-01-29T02:45:02.911Z)
Latitude
-0.00001°
Longitude
-68.25499°
Altitude
152.465 km
Speed
7.814 km/s
True Right ascension
06h 45m 30s
True Declination
0° 00' 00"
Sunlit
Object was in full shadow at epoch
Visualization orbit readout
Latitude
Unknown
Longitude
Unknown
Altitude
Unknown
Speed
Unknown
Apparent Right ascension
Unknown
Apparent Declination
Unknown
Sunlit
N/A
Visualization observer readout
Local Sidereal Time
18:45:19
Azimuth
Unknown
Elevation
Unknown
Doppler factor
Unknown
Orbital elements
Apogee altitude
150.749 km
Perigee altitude
139.093 km
Semi-major axis
6,523.058 km
Eccentricity
0.00089
Inclination
97.1663°
RAAN
101.3791°
Arg. of periapsis
259.554°
True anomaly
100.57636°
Mean anomaly
100.4757°
Eccentric anomaly
100.52603°
Mean motion
4.11971 °/min
Orbital period
87.38 mins
BSTAR
0.00026591
Loading maneuver chart data...
Computing Atmospheric mass density...
Loading historical data...
Loading historical data...
Loading historical data...
Loading historical data...
Loading historical data...
Loading historical data...
Loading historical data...

Documentation

Showing up to 5 results
|